Location: Val-d'Or
(48.1170°N, 77.7670°W)
Time: 12:03:00
(UTC-04:00)

ISS - Pass Details

Date: 17 May 2018
Orbit: 402 x 407 km, 51.6° (Epoch: 23 May)

Event Time Altitude Azimuth Distance (km) Brightness Sun altitude
Exits shadow 01:16:55 26° 65° (ENE) 840 -2.0 -22.5°
Drops below altitude 10° 01:18:28 10° 67° (ENE) 1,459 -0.7 -22.5°
Sets 01:20:33 0° 68° (ENE) 2,320 0.4 -22.5°
